Hourly Weather Kleczkowo

Today, 27 July, Tuesday

Time Temperature Precipitation Wind Pressure Humidity
00:00 +19°C° 0 mm 1 mps 743 mmHg 96%
01:00 +19°C° 0 mm 1 mps 743 mmHg 96%
02:00 +19°C° 0 mm 1 mps 743 mmHg 96%
03:00 +19°C° 0 mm 1 mps 743 mmHg 96%
04:00 +19°C° 0 mm 1 mps 743 mmHg 96%
05:00 +19°C° 0 mm 2 mps 743 mmHg 91%
06:00 +21°C° 0 mm 2 mps 743 mmHg 86%
07:00 +23°C° 0 mm 2 mps 743 mmHg 81%
08:00 +24°C° 0 mm 2 mps 743 mmHg 76%
09:00 +26°C° 0 mm 3 mps 743 mmHg 70%
10:00 +27°C° 0 mm 3 mps 744 mmHg 65%
11:00 +27°C° 0.8 mm 4 mps 744 mmHg 64%
12:00 +27°C° 0.8 mm 4 mps 744 mmHg 63%
13:00 +28°C° 0.8 mm 4 mps 744 mmHg 62%
14:00 +28°C° 0.3 mm 4 mps 744 mmHg 59%
15:00 +29°C° 0.3 mm 4 mps 744 mmHg 56%
16:00 +29°C° 0.3 mm 3 mps 743 mmHg 53%
17:00 +28°C° 0 mm 3 mps 743 mmHg 58%
18:00 +26°C° 0 mm 2 mps 743 mmHg 63%
19:00 +25°C° 0 mm 2 mps 743 mmHg 68%
20:00 +24°C° 0 mm 2 mps 743 mmHg 68%
21:00 +24°C° 0 mm 2 mps 744 mmHg 67%
22:00 +23°C° 0 mm 2 mps 744 mmHg 67%
23:00 +23°C° 0 mm 2 mps 744 mmHg 69%

Tomorrow, 28 July, Wednesday

Time Temperature Precipitation Wind Pressure Humidity
00:00 +21°C° 0 mm 2 mps 744 mmHg 72%
01:00 +20°C° 0 mm 2 mps 744 mmHg 74%
02:00 +20°C° 0 mm 2 mps 744 mmHg 73%
03:00 +19°C° 0 mm 2 mps 743 mmHg 73%
04:00 +19°C° 0 mm 2 mps 743 mmHg 72%
05:00 +21°C° 0 mm 2 mps 743 mmHg 69%
06:00 +23°C° 0 mm 2 mps 743 mmHg 65%
07:00 +24°C° 0 mm 3 mps 744 mmHg 62%
08:00 +25°C° 0 mm 3 mps 744 mmHg 58%
09:00 +27°C° 0 mm 2 mps 744 mmHg 54%
10:00 +28°C° 0 mm 2 mps 744 mmHg 50%
11:00 +28°C° 0 mm 2 mps 744 mmHg 49%
12:00 +28°C° 0 mm 2 mps 744 mmHg 49%
13:00 +29°C° 0 mm 2 mps 743 mmHg 49%
14:00 +27°C° 0.3 mm 2 mps 743 mmHg 60%
15:00 +24°C° 0.3 mm 2 mps 743 mmHg 72%
16:00 +21°C° 0.3 mm 3 mps 743 mmHg 83%
17:00 +21°C° 0.1 mm 2 mps 743 mmHg 83%
18:00 +21°C° 0.1 mm 2 mps 743 mmHg 83%
19:00 +22°C° 0.1 mm 1 mps 743 mmHg 83%
20:00 +21°C° 0.2 mm 1 mps 743 mmHg 86%
21:00 +19°C° 0.2 mm 2 mps 743 mmHg 89%
22:00 +19°C° 0.2 mm 2 mps 743 mmHg 91%
23:00 +18°C° 0.1 mm 2 mps 743 mmHg 93%

Day after tomorrow, 29 July, Thursday

Time Temperature Precipitation Wind Pressure Humidity
00:00 +18°C° 0.1 mm 2 mps 743 mmHg 94%
01:00 +18°C° 0.1 mm 2 mps 743 mmHg 95%
02:00 +17°C° 0 mm 2 mps 743 mmHg 96%
03:00 +17°C° 0 mm 2 mps 743 mmHg 96%
04:00 +17°C° 0 mm 3 mps 743 mmHg 96%
05:00 +18°C° 0 mm 3 mps 743 mmHg 90%
06:00 +19°C° 0 mm 3 mps 743 mmHg 85%
07:00 +20°C° 0 mm 3 mps 743 mmHg 79%
08:00 +22°C° 0 mm 3 mps 743 mmHg 72%
09:00 +23°C° 0 mm 4 mps 743 mmHg 64%
10:00 +26°C° 0 mm 4 mps 743 mmHg 56%
11:00 +26°C° 0 mm 5 mps 743 mmHg 52%
12:00 +27°C° 0 mm 6 mps 743 mmHg 49%
13:00 +27°C° 0 mm 6 mps 743 mmHg 46%
14:00 +27°C° 0 mm 6 mps 743 mmHg 48%
15:00 +26°C° 0 mm 6 mps 743 mmHg 50%
16:00 +26°C° 0 mm 6 mps 742 mmHg 52%
17:00 +25°C° 0 mm 5 mps 742 mmHg 57%
18:00 +22°C° 0 mm 4 mps 742 mmHg 61%
19:00 +21°C° 0 mm 3 mps 742 mmHg 66%
20:00 +21°C° 0 mm 3 mps 742 mmHg 65%
21:00 +20°C° 0 mm 3 mps 742 mmHg 65%
22:00 +19°C° 0 mm 2 mps 742 mmHg 64%
23:00 +19°C° 0 mm 2 mps 742 mmHg 64%

30 July, Friday

Time Temperature Precipitation Wind Pressure Humidity
00:00 +20°C° 0 mm 1 mps 742 mmHg 63%
01:00 +20°C° 0 mm 1 mps 742 mmHg 62%
02:00 +19°C° 0 mm 1 mps 742 mmHg 64%
03:00 +18°C° 0 mm 2 mps 741 mmHg 66%
04:00 +17°C° 0 mm 2 mps 741 mmHg 68%
05:00 +19°C° 0 mm 3 mps 741 mmHg 67%
06:00 +20°C° 0 mm 3 mps 741 mmHg 66%
07:00 +21°C° 0 mm 3 mps 741 mmHg 66%
08:00 +22°C° 0 mm 4 mps 741 mmHg 61%
09:00 +23°C° 0 mm 5 mps 741 mmHg 57%
10:00 +24°C° 0 mm 6 mps 741 mmHg 52%
11:00 +26°C° 0 mm 6 mps 741 mmHg 49%
12:00 +26°C° 0 mm 6 mps 740 mmHg 46%
13:00 +26°C° 0 mm 6 mps 740 mmHg 42%
14:00 +26°C° 0 mm 6 mps 740 mmHg 42%
15:00 +26°C° 0 mm 6 mps 740 mmHg 42%
16:00 +26°C° 0 mm 6 mps 740 mmHg 42%
17:00 +23°C° 0 mm 5 mps 740 mmHg 46%
18:00 +22°C° 0 mm 4 mps 739 mmHg 51%
19:00 +20°C° 0 mm 4 mps 739 mmHg 55%
20:00 +19°C° 0 mm 3 mps 740 mmHg 58%
21:00 +18°C° 0 mm 3 mps 740 mmHg 62%
22:00 +16°C° 0 mm 3 mps 740 mmHg 65%
23:00 +16°C° 0 mm 3 mps 740 mmHg 69%

31 July, Saturday

Time Temperature Precipitation Wind Pressure Humidity
00:00 +16°C° 0 mm 3 mps 740 mmHg 72%
01:00 +14°C° 0 mm 3 mps 740 mmHg 75%
02:00 +14°C° 0 mm 3 mps 740 mmHg 78%
03:00 +13°C° 0 mm 3 mps 740 mmHg 81%
04:00 +13°C° 0 mm 3 mps 740 mmHg 84%
05:00 +14°C° 0 mm 4 mps 740 mmHg 79%
06:00 +16°C° 0 mm 5 mps 741 mmHg 75%
07:00 +17°C° 0 mm 6 mps 741 mmHg 70%
08:00 +19°C° 0 mm 6 mps 741 mmHg 64%
09:00 +21°C° 0 mm 6 mps 741 mmHg 58%
10:00 +22°C° 0 mm 7 mps 741 mmHg 53%
11:00 +23°C° 0 mm 7 mps 741 mmHg 50%
12:00 +24°C° 0 mm 7 mps 741 mmHg 47%
13:00 +26°C° 0 mm 7 mps 741 mmHg 44%
14:00 +24°C° 0 mm 6 mps 741 mmHg 47%
15:00 +23°C° 0 mm 5 mps 741 mmHg 49%
16:00 +24°C° 0 mm 3 mps 741 mmHg 52%
17:00 +22°C° 0 mm 4 mps 741 mmHg 52%
18:00 +22°C° 0 mm 4 mps 741 mmHg 53%
19:00 +21°C° 0 mm 4 mps 740 mmHg 53%
20:00 +20°C° 0 mm 3 mps 740 mmHg 55%
21:00 +20°C° 0 mm 3 mps 741 mmHg 56%
22:00 +19°C° 0 mm 2 mps 741 mmHg 58%
23:00 +18°C° 0 mm 2 mps 741 mmHg 61%

1 August, Sunday

Time Temperature Precipitation Wind Pressure Humidity
00:00 +18°C° 0 mm 1 mps 741 mmHg 65%
01:00 +16°C° 0 mm 1 mps 741 mmHg 69%
02:00 +16°C° 0 mm 1 mps 741 mmHg 69%
03:00 +15°C° 0 mm 1 mps 741 mmHg 70%
04:00 +15°C° 0 mm 1 mps 740 mmHg 70%
05:00 +18°C° 0 mm 1 mps 740 mmHg 67%
06:00 +19°C° 0 mm 1 mps 740 mmHg 63%
07:00 +21°C° 0 mm 1 mps 740 mmHg 59%
08:00 +22°C° 0 mm 1 mps 740 mmHg 55%
09:00 +24°C° 0 mm 2 mps 740 mmHg 51%
10:00 +25°C° 0 mm 2 mps 740 mmHg 47%
11:00 +23°C° 0.4 mm 2 mps 739 mmHg 58%
12:00 +20°C° 0.4 mm 3 mps 739 mmHg 69%
13:00 +18°C° 0.4 mm 3 mps 738 mmHg 80%
14:00 +18°C° 2 mm 4 mps 738 mmHg 85%
15:00 +17°C° 2 mm 4 mps 737 mmHg 89%
16:00 +16°C° 2 mm 5 mps 737 mmHg 94%
17:00 +15°C° 0.4 mm 5 mps 737 mmHg 94%
18:00 +15°C° 0.4 mm 5 mps 737 mmHg 94%
19:00 +15°C° 0.4 mm 5 mps 737 mmHg 94%
20:00 +14°C° 0.3 mm 5 mps 737 mmHg 94%
21:00 +14°C° 0.3 mm 6 mps 737 mmHg 94%
22:00 +13°C° 0.3 mm 6 mps 737 mmHg 93%
23:00 +14°C° 0.2 mm 5 mps 737 mmHg 94%
Show more